Location: *
(57.8420°S, 159.8600°W)
Time: 13:06:39
(UTC+00:00)

Cosmos 1992 Rocket - Pass Details

Date: 18 May 2021
Orbit: 758 x 766 km, 74.0° (Epoch: 22 June)

Event Time Altitude Azimuth Distance (km) Brightness Sun altitude
Rises 03:29:41 0° 347° (NNW) 3,243 7.8 -8.1°
Reaches altitude 10° 03:32:05 10° 350° (N) 2,323 7.0 -8.4°
Maximum altitude 03:37:15 58° 68° (ENE) 907 4.2 -9.0°
Drops below altitude 10° 03:42:28 10° 145° (SE) 2,343 6.0 -9.7°
Enters shadow 03:43:14 - 147° (SSE) 2,632 6.3 -9.8°
